Tracking 28790 objects as of 19-Apr-2024
HD Live streaming from Space Station
objects crossing your sky now

STARLINK-4080

Track STARLINK-4080 now!
10-day predictions
STARLINK-4080 is classified as:


NORAD ID: 52835
Int'l Code: 2022-062F
Perigee: 545.8 km
Apogee: 548.0 km
Inclination: 53.2 °
Period: 95.4 minutes
Semi major axis: 6917 km
RCS: Unknown
Launch date: June 17, 2022
Source: United States (US)
Launch site: AIR FORCE EASTERN TEST RANGE (AFETR)
Your satellite tracking list
Your tracking list is empty




NASA's NSSDC Master Catalog

Two Line Element Set (TLE):
1 52835U 22062F   24109.60216276  .00003184  00000-0  21800-3 0  9991
2 52835  53.2174 252.0456 0001598  67.0510 293.0651 15.08843960101601
Source of the keplerian elements: AFSPC